Location: Pedimozza
(42.0500°N, 9.3500°E)
Time: 15:12:21
(UTC+00:00)

Cosmos 1980 Rocket - Pass Details

Date: 19 August 2019
Orbit: 829 x 850 km, 71.0° (Epoch: 22 September)

Event Time Altitude Azimuth Distance (km) Brightness Sun altitude
Rises 19:48:42 0° 350° (N) 3,389 6.0 -16.0°
Reaches altitude 10° 19:53:23 10° 26° (NNE) 2,455 4.7 -16.7°
Maximum altitude 19:54:55 11° 42° (NE) 2,382 4.5 -16.9°
Drops below altitude 10° 19:56:27 10° 58° (ENE) 2,456 4.4 -17.1°
Enters shadow 19:57:40 - 69° (ENE) 2,613 4.4 -17.3°
